Location: Newark
(16.3678°N, 77.8722°E)
Time: 19:52:16
(UTC+00:00)

Tiros 1 - Pass Details

Date: 16 December 2019
Orbit: 630 x 664 km, 48.4° (Epoch: 18 January)

Event Time Altitude Azimuth Distance (km) Brightness Sun altitude
Rises 06:53:48 0° 312° (NW) 2,910 10.3 50.3°
Reaches altitude 10° 06:56:09 10° 308° (NW) 1,999 9.6 50.2°
Maximum altitude 07:00:38 56° 231° (SW) 748 8.9 50.1°
Drops below altitude 10° 07:05:08 10° 153° (SSE) 1,995 10.4 50.0°
Sets 07:07:29 0° 148° (SSE) 2,903 10.9 49.9°
